Peoria, IL

3:56 PM CDT on September 29, 2016 (GMT -0500)
Greater Peoria Regional

Weather History for KPIA - September, 2011

Change the Weather History Date:

Sunday, September 11, 2011

  Actual Average Record
Temperature  
Mean Temperature 70 °F 68 °F  
Max Temperature 83 °F 79 °F 98 °F (1933)
Min Temperature 57 °F 57 °F 35 °F (1917)
Degree Days  
Heating Degree Days 0 1  
Month to date heating degree days 13 10  
Since 1 July heating degree days 13 16  
Cooling Degree Days 5 5  
Month to date cooling degree days 69 65  
Year to date cooling degree days 1238 972  
Growing Degree Days 20 (Base 50)    
Moisture  
Dew Point 59 °F    
Average Humidity 72    
Maximum Humidity 100    
Minimum Humidity 43    
Precipitation  
Precipitation 0.00 in 0.11 in 1.10 in (1944)
Month to date precipitation 1.18 1.22  
Year to date precipitation 29.18 26.17  
Snow  
Snow 0.00 in 0.00 in 0.00 in ()
Month to date snowfall 0.0 0.0  
Since 1 July snowfall 0.0 0.0  
Since 1 September snowfall 0.0 0.0  
Snow Depth 0.00 in    
Sea Level Pressure  
Sea Level Pressure 30.03 in    
Wind  
Wind Speed 2 mph (WNW)    
Max Wind Speed 8 mph    
Max Gust Speed 12 mph    
Visibility 8 miles    
Events      
T = Trace of Precipitation, MM = Missing Value Source: NWS Daily Summary

Daily Weather History Graph

Daily Weather History Graph

Search for Another Location

Airport or City:

Trip Planner

Search our weather history database for the weather conditions in past years. The results will help you decide how hot, cold, wet, or windy it might be!

Date:

Astronomy

Sep. 11, 2011 Rise Set
Actual Time 6:35 AM CDT 7:14 PM CDT
Civil Twilight 6:07 AM CDT 7:42 PM CDT
Nautical Twilight 5:34 AM CDT 8:14 PM CDT
Astronomical Twilight 5:01 AM CDT 8:48 PM CDT
Moon 6:36 PM CDT (9/11) 5:54 AM CDT (9/11)
Length of Visible Light 13h 34m
Length of Day
12h 39m
Full, 100% of the Moon is Illuminated
Sep 11
Full
Sep 12
Full
Sep 20
Last Quarter
Sep 27
New
Oct 3
First Quarter

Hourly Weather History & Observations

Time (CDT) Temp. Heat Index Dew Point Humidity Pressure Visibility Wind Dir Wind Speed Gust Speed Precip Events Conditions
12:54 AM 61.0 °F - 59.0 °F 93% 30.03 in 6.0 mi Calm Calm - N/A   Clear
1:54 AM 60.1 °F - 57.9 °F 93% 30.02 in 7.0 mi Calm Calm - N/A   Clear
2:54 AM 59.0 °F - 57.9 °F 96% 30.02 in 3.0 mi Calm Calm - N/A   Clear
3:54 AM 59.0 °F - 57.0 °F 93% 30.03 in 6.0 mi NW 3.5 mph - N/A   Clear
4:54 AM 57.9 °F - 57.0 °F 97% 30.03 in 4.0 mi Calm Calm - N/A   Clear
5:54 AM 57.9 °F - 55.9 °F 93% 30.04 in 3.0 mi Calm Calm - N/A   Clear
6:54 AM 57.2 °F - 55.4 °F 94% 30.06 in 4.0 mi Calm Calm - N/A   Clear
7:54 AM 64.0 °F - 61.0 °F 90% 30.06 in 6.0 mi Calm Calm - N/A   Clear
8:54 AM 69.8 °F - 62.6 °F 78% 30.07 in 9.0 mi Calm Calm - N/A   Clear
9:54 AM 73.0 °F - 60.1 °F 64% 30.06 in 10.0 mi Variable 3.5 mph - N/A   Clear
10:54 AM 75.9 °F - 60.1 °F 58% 30.06 in 10.0 mi West 6.9 mph - N/A   Clear
11:54 AM 78.1 °F - 59.0 °F 52% 30.05 in 10.0 mi NW 5.8 mph - N/A   Clear
12:54 PM 79.0 °F - 59.0 °F 50% 30.04 in 10.0 mi NNW 6.9 mph - N/A   Partly Cloudy
1:54 PM 81.0 °F 81.1 °F 57.9 °F 45% 30.02 in 10.0 mi WNW 4.6 mph - N/A   Partly Cloudy
2:54 PM 82.0 °F 82.1 °F 59.0 °F 45% 30.01 in 10.0 mi West 8.1 mph - N/A   Scattered Clouds
3:54 PM 79.0 °F - 59.0 °F 50% 30.00 in 10.0 mi Calm Calm - N/A   Clear
4:54 PM 82.9 °F 82.6 °F 57.9 °F 42% 29.98 in 10.0 mi WNW 3.5 mph - N/A   Partly Cloudy
5:54 PM 80.1 °F 80.7 °F 59.0 °F 48% 29.99 in 10.0 mi Calm Calm - N/A   Clear
6:54 PM 78.1 °F - 61.0 °F 56% 29.99 in 10.0 mi Calm Calm - N/A   Clear
7:54 PM 70.0 °F - 63.0 °F 78% 30.00 in 10.0 mi Calm Calm - N/A   Mostly Cloudy
8:54 PM 68.0 °F - 61.0 °F 78% 30.02 in 10.0 mi Calm Calm - N/A   Partly Cloudy
9:54 PM 66.9 °F - 62.1 °F 84% 30.02 in 10.0 mi Calm Calm - N/A   Clear
10:54 PM 66.0 °F - 61.0 °F 84% 30.03 in 10.0 mi Calm Calm - N/A   Clear
11:54 PM 66.0 °F - 61.0 °F 84% 30.03 in 10.0 mi Calm Calm - N/A   Clear